{"data":{"norad_id":53704,"epoch":"2026-09-20T21:48:03.757248Z","epoch_age_seconds":46391,"freshness":"FRESH","line1":"1 53704U 22107E   26263.90837682  .00000446  00000+0  26138-4 0  9990","line2":"2 53704  53.1599  73.8811 0001245  88.3796 271.7348 15.31703885224353","mean_motion":15.31703885,"eccentricity":0.0001245,"inclination_deg":53.1599,"raan_deg":73.8811,"arg_perigee_deg":88.3796,"mean_anomaly_deg":271.7348,"bstar":2.6138e-5,"rev_number":22435,"period_min":94.012949506882,"perigee_km":469.87573052321,"apogee_km":471.58109801136,"semimajor_km":6848.8654142673,"source":"CELESTRAK","updated_at":"2026-09-21T09:00:32.982247Z"}}